Regional Weather Roundup
Issued by NWS

Home | Current Version | Previous Version | Text Only | Print | Product List | Glossary Off
Versions: 1 2 3 4 5 6 7 8 9 10 11 12 13 14 15 16 17 18 19 20 21 22 23 24 25 26 27

000
ASUS45 KPSR 121810
RWRAZ

ARIZONA HOURLY REGIONAL WEATHER ROUNDUP
NATIONAL WEATHER SERVICE PHOENIX AZ
1100 AM MST TUE DEC 12 2017

NOTE: FAIR INDICATES FEW OR NO CLOUDS BELOW 12,000 FEET WITH NO
SIGNIFICANT WEATHER AND/OR OBSTRUCTIONS TO VISIBILITY.

AZZ001>003-036-121900-
NORTHWEST ARIZONA

CITY           SKY/WX    TMP DP  RH WIND       PRES   REMARKS
BULLHEAD CITY  SUNNY     64   0   7 N25G35    30.28S
KINGMAN        SUNNY     56   2  11 N8        30.36F
6HR MIN TEMP:  27; 6HR MAX TEMP:  56;

$$

AZZ004>008-015-016-018-121900-
NORTH CENTRAL ARIZONA

CITY           SKY/WX    TMP DP  RH WIND       PRES   REMARKS
GRAND CANYON   SUNNY     54  -1  10 NE14      30.49S
6HR MIN TEMP:  11; 6HR MAX TEMP:  54;

WILLIAMS       SUNNY     55   9  15 CALM      30.44S
PRESCOTT       SUNNY     52  -1  11 N3        30.40F
6HR MIN TEMP:  25; 6HR MAX TEMP:  52;

FLAGSTAFF      SUNNY     49   2  14 SE10      30.47F
6HR MIN TEMP:  17; 6HR MAX TEMP:  49;

PAYSON         SUNNY     61  -8   6 E8        30.40F
PAGE           SUNNY     40  13  33 CALM      30.51F
6HR MIN TEMP:  26; 6HR MAX TEMP:  40;

$$

AZZ009>014-017-121900-
NORTHEAST ARIZONA

CITY           SKY/WX    TMP DP  RH WIND       PRES   REMARKS
WINSLOW        SUNNY     36  -3  19 SE5       30.52F WCI  32
6HR MIN TEMP:   6; 6HR MAX TEMP:  36;

SAINT JOHNS    SUNNY     35  -5  18 NW5       30.47F WCI  31
6HR MIN TEMP:   6; 6HR MAX TEMP:  35;

WINDOW ROCK    SUNNY     45  -1  14 CALM      30.50F
6HR MIN TEMP:   6; 6HR MAX TEMP:  45;

SHOW LOW       SUNNY     41  -2  16 VRB7      30.49F
$$

AZZ540-542>544-546-548-121900-
GREATER PHOENIX AREA

CITY           SKY/WX    TMP DP  RH WIND       PRES   REMARKS
PHOENIX        MOSUNNY   70   5   8 E14       30.24F
6HR MIN TEMP:  46; 6HR MAX TEMP:  70;

BUCKEYE        SUNNY     63  59  88 CALM      30.25F
GLENDALE       MOSUNNY   63  12  14 CALM      30.27F
LUKE AFB       SUNNY     63  10  12 CALM      30.24F
6HR MIN TEMP:  40; 6HR MAX TEMP:  63;

DEER VALLEY    SUNNY     70  -1   6 SE3       30.25F
6HR MIN TEMP:  45; 6HR MAX TEMP:  71;

SCOTTSDALE     SUNNY     69  17  13 CALM      30.26F
6HR MIN TEMP:  45; 6HR MAX TEMP:  69;

MESA-FALCON    MOSUNNY   70   5   8 NE17      30.25F
MESA-GATEWAY   MOSUNNY   61  16  17 CALM      30.26F
CHANDLER       SUNNY     64  14  14 N6        30.25F
$$

AZZ539-553-121900-
SOUTHWEST MARICOPA COUNTY AND PINAL COUNTY

CITY           SKY/WX    TMP DP  RH WIND       PRES   REMARKS
CASA GRANDE    NOT AVBL
GILA BEND      MOSUNNY   63   9  12 NE7       30.22F
$$

AZZ503-504-507>509-121900-
SOUTHEAST ARIZONA

CITY           SKY/WX    TMP DP  RH WIND       PRES   REMARKS
TUCSON         CLOUDY    67   7   9 SE16G29   30.26F
6HR MIN TEMP:  45; 6HR MAX TEMP:  67;

DAVIS-MONTHAN  PTSUNNY   68   7   9 E6        30.25F
6HR MIN TEMP:  50; 6HR MAX TEMP:  68;

RYAN FIELD     SUNNY     66   9  10 E22G30    30.26S
NOGALES        PTSUNNY   64  17  16 E9        30.27F
6HR MIN TEMP:  40; 6HR MAX TEMP:  64;

SIERRA VISTA   CLOUDY    57  14  18 SE16      30.36F
6HR MIN TEMP:  37; 6HR MAX TEMP:  57;

DOUGLAS        MOSUNNY   61  12  14 E20       30.35F
6HR MIN TEMP:  27; 6HR MAX TEMP:  61;

SAFFORD        MOSUNNY   54   7  15 SE8       30.41F
6HR MIN TEMP:  40; 6HR MAX TEMP:  55;

$$

AZZ532-121900-
SOUTHWEST ARIZONA

CITY           SKY/WX    TMP DP  RH WIND       PRES   REMARKS
YUMA           MOSUNNY   68  17  14 N6        30.22F
6HR MIN TEMP:  48; 6HR MAX TEMP:  68;

$$

CAZ041-043-047-048-061-525>527-560>570-121900-
SOUTHERN CALIFORNIA

CITY           SKY/WX    TMP DP  RH WIND       PRES   REMARKS
DOWNTOWN L.A.  SUNNY     73   6   7 VRB3      30.18F
6HR MIN TEMP:  55; 6HR MAX TEMP:  73;

L.A. AIRPORT   MOSUNNY   76   3   6 N7        30.19F
6HR MIN TEMP:  55; 6HR MAX TEMP:  76;

SAN DIEGO      SUNNY     72  14  11 N5        30.19F
6HR MIN TEMP:  50; 6HR MAX TEMP:  72;

BURBANK        SUNNY     67   7   9 CALM      30.21S
6HR MIN TEMP:  44; 6HR MAX TEMP:  67;

ONTARIO        MOSUNNY   70   2   7 NW3       30.21F
6HR MIN TEMP:  42; 6HR MAX TEMP:  70;

RIVERSIDE      MOSUNNY   67  20  16 E5        30.21F
6HR MIN TEMP:  46; 6HR MAX TEMP:  67;

PALM SPRINGS   SUNNY     75  12   9 W6        30.24F
6HR MIN TEMP:  53; 6HR MAX TEMP:  75;

EL CENTRO NAS  SUNNY     66  19  16 N3        30.25F
6HR MIN TEMP:  39; 6HR MAX TEMP:  66;

IMPERIAL       SUNNY     65  25  22 CALM      30.23S
6HR MIN TEMP:  43; 6HR MAX TEMP:  65;

BLYTHE         SUNNY     60  -2   8 CALM      30.28S
6HR MIN TEMP:  38; 6HR MAX TEMP:  60;

NEEDLES        SUNNY     66   3   8 N10       30.30F
6HR MIN TEMP:  52; 6HR MAX TEMP:  66;

$$

NVZ020-UTZ003-121900-
SOUTHERN NEVADA-UTAH

CITY           SKY/WX    TMP DP  RH WIND       PRES   REMARKS
LAS VEGAS      MOSUNNY   57  -5   8 NW3       30.38F
6HR MIN TEMP:  39; 6HR MAX TEMP:  58;

SALT LAKE CITY FOG       24  22  91 CALM      30.61S VSB 1/4
6HR MIN TEMP:  24; 6HR MAX TEMP:  25; 6HR PCP:  0.01;

$$

NMZ009-TXZ055-121900-
NEW MEXICO-WEST TEXAS

CITY           SKY/WX    TMP DP  RH WIND       PRES   REMARKS
ALBUQUERQUE    SUNNY     43   6  21 CALM      30.51F
6HR MIN TEMP:  27; 6HR MAX TEMP:  43;

EL PASO        SUNNY     55  13  18 E13       30.49F
6HR MIN TEMP:  31; 6HR MAX TEMP:  55;

$$


........................KEY........................
SKY/WX - SKY CONDITION/WEATHER
TMP    - TEMPERATURE IN FAHRENHEIT
DP     - DEW POINT IN FAHRENHEIT
RH     - RELATIVE HUMIDITY IN PERCENT
WIND   - DIRECTION AND SPEED IN MILES PER HOUR (MPH)
VRB    - VARIABLE WIND DIRECTION
PRES   - MEAN SEA LEVEL PRESSURE IN INCHES OF MERCURY
         F - FALLING PRESSURE   R - RISING PRESSURE
         S - STEADY PRESSURE
VSB    - VISIBILITY IN MILES
HX     - HEAT INDEX IN FAHRENHEIT
WCI    - WIND CHILL INDEX IN FAHRENHEIT
TC     - TEMPERATURE IN CELSIUS WHICH IS ALSO KNOWN AS
         TEMPERATURE IN CENTIGRADE
AFB    - AIR FORCE BASE
         LUKE AFB IS LUKE AIR FORCE BASE
         DAVIS-MONTHAN IS DAVIS-MONTHAN AIR FORCE BASE
NAS    - NAVAL AIR STATION
         EL CENTRO NAS IS EL CENTRO NAVAL AIR STATION
N/A    - NOT AVAILABLE





USA.gov is the U.S. government's official web portal to all federal, state and local government web resources and services.